THY8EM LTFH-LTFM

Flight info

Callsign THY8EM
Flight time 1h 7m
Altitude 38000
Route BAFRA UW86 SIN UN644 INB UW702 GUMRU UT315 NUGBA
Aircraft B38M/M-SDE1FGHILORVWXY/HB1

Departure

Time 2026-05-08 16:21
Airport Samsun-Çarşamba Airport (LTFH)

Arrival

Time 2026-05-08 17:28
Airport İstanbul Airport (LTFM)
Time Latitude Longitude Altitude Speed Heading
2026-05-08 16:03 41.25867 36.55515 57 ft 0 kts 223°
2026-05-08 16:16 41.25880 36.55531 50 ft 4 kts 226°
2026-05-08 16:16 41.25898 36.55558 53 ft 4 kts 233°
2026-05-08 16:16 41.25913 36.55588 53 ft 4 kts 243°
2026-05-08 16:16 41.25914 36.55591 53 ft 0 kts 244°
2026-05-08 16:19 41.25913 36.55590 53 ft 1 kts 248°
2026-05-08 16:19 41.25928 36.55557 51 ft 10 kts 313°
2026-05-08 16:19 41.26005 36.55453 51 ft 21 kts 313°
2026-05-08 16:20 41.26107 36.55307 49 ft 22 kts 312°
2026-05-08 16:20 41.26214 36.55237 49 ft 18 kts 31°
2026-05-08 16:20 41.26314 36.55353 49 ft 20 kts 42°
2026-05-08 16:20 41.26313 36.55502 49 ft 17 kts 135°
2026-05-08 16:21 41.26242 36.55602 51 ft 31 kts 133°
2026-05-08 16:21 41.25866 36.56130 52 ft 124 kts 134°
2026-05-08 16:21 41.25104 36.57188 282 ft 177 kts 133°
2026-05-08 16:21 41.24255 36.58386 1456 ft 174 kts 133°
2026-05-08 16:22 41.23417 36.59512 2628 ft 177 kts 133°
2026-05-08 16:22 41.22565 36.60708 3289 ft 197 kts 133°
2026-05-08 16:22 41.21716 36.61899 3853 ft 218 kts 133°
2026-05-08 16:22 41.20598 36.63463 4512 ft 246 kts 133°
2026-05-08 16:23 41.19515 36.65287 5289 ft 267 kts 115°
2026-05-08 16:23 41.19165 36.67742 6214 ft 276 kts 82°
2026-05-08 16:23 41.19792 36.70112 7303 ft 280 kts 56°
2026-05-08 16:23 41.20944 36.71684 8182 ft 281 kts 31°
2026-05-08 16:24 41.22760 36.72626 9266 ft 284 kts
2026-05-08 16:24 41.24719 36.72505 10298 ft 284 kts 342°
2026-05-08 16:24 41.26493 36.71289 11005 ft 298 kts 318°
2026-05-08 16:24 41.27775 36.69061 11615 ft 314 kts 295°
2026-05-08 16:25 41.28637 36.66292 12131 ft 334 kts 294°
2026-05-08 16:25 41.29600 36.63377 12543 ft 355 kts 293°
2026-05-08 16:25 41.30623 36.60295 12981 ft 373 kts 294°
2026-05-08 16:25 41.31684 36.57086 13590 ft 383 kts 294°
2026-05-08 16:26 41.32746 36.53821 14335 ft 388 kts 294°
2026-05-08 16:26 41.33817 36.50495 15038 ft 393 kts 293°
2026-05-08 16:26 41.34897 36.47134 15755 ft 397 kts 294°
2026-05-08 16:26 41.35983 36.43738 16484 ft 401 kts 293°
2026-05-08 16:27 41.37078 36.40301 17129 ft 406 kts 294°
2026-05-08 16:27 41.38183 36.36834 17839 ft 409 kts 293°
2026-05-08 16:27 41.39300 36.33318 18475 ft 414 kts 293°
2026-05-08 16:27 41.40429 36.29767 19045 ft 418 kts 293°
2026-05-08 16:28 41.41565 36.26191 19688 ft 420 kts 293°
2026-05-08 16:28 41.42703 36.22588 20265 ft 424 kts 294°
2026-05-08 16:28 41.43850 36.18959 20875 ft 426 kts 293°
2026-05-08 16:28 41.45003 36.15305 21438 ft 429 kts 293°
2026-05-08 16:29 41.46163 36.11618 21998 ft 433 kts 293°
2026-05-08 16:29 41.47331 36.07906 22552 ft 436 kts 294°
2026-05-08 16:29 41.48504 36.04170 23142 ft 438 kts 294°
2026-05-08 16:29 41.49682 36.00411 23698 ft 441 kts 294°
2026-05-08 16:30 41.50904 35.96653 24150 ft 443 kts 298°
2026-05-08 16:30 41.52426 35.93072 24648 ft 444 kts 300°
2026-05-08 16:30 41.53929 35.89471 25123 ft 446 kts 300°
2026-05-08 16:30 41.55423 35.85839 25595 ft 447 kts 300°
2026-05-08 16:31 41.56913 35.82182 26065 ft 449 kts 300°
2026-05-08 16:31 41.58402 35.78511 26523 ft 450 kts 300°
2026-05-08 16:31 41.59894 35.74825 26970 ft 452 kts 300°
2026-05-08 16:31 41.61393 35.71118 27407 ft 454 kts 300°
2026-05-08 16:32 41.62892 35.67404 27864 ft 455 kts 300°
2026-05-08 16:32 41.64389 35.63693 28427 ft 452 kts 300°
2026-05-08 16:32 41.65874 35.60005 29024 ft 449 kts 300°
2026-05-08 16:32 41.67328 35.56390 29617 ft 445 kts 301°
2026-05-08 16:33 41.68786 35.52758 30196 ft 443 kts 300°
2026-05-08 16:33 41.70235 35.49147 30679 ft 440 kts 300°
2026-05-08 16:33 41.71682 35.45535 31140 ft 439 kts 300°
2026-05-08 16:33 41.73119 35.41944 31585 ft 437 kts 300°
2026-05-08 16:34 41.74552 35.38359 32033 ft 436 kts 300°
2026-05-08 16:34 41.75979 35.34785 32478 ft 434 kts 300°
2026-05-08 16:34 41.77400 35.31223 32925 ft 433 kts 300°
2026-05-08 16:34 41.78817 35.27665 33348 ft 432 kts 300°
2026-05-08 16:35 41.80230 35.24116 33767 ft 432 kts 299°
2026-05-08 16:35 41.81697 35.20613 34201 ft 429 kts 306°
2026-05-08 16:35 41.83693 35.17686 34589 ft 425 kts 322°
2026-05-08 16:35 41.86210 35.15623 34955 ft 425 kts 335°
2026-05-08 16:36 41.88949 35.14133 35279 ft 426 kts 337°
2026-05-08 16:36 41.91717 35.12715 35599 ft 426 kts 338°
2026-05-08 16:36 41.94494 35.11341 35937 ft 425 kts 337°
2026-05-08 16:36 41.97080 35.09473 36222 ft 422 kts 322°
2026-05-08 16:37 41.99149 35.06692 36555 ft 422 kts 307°
2026-05-08 16:37 42.00570 35.03244 36853 ft 425 kts 294°
2026-05-08 16:37 42.01334 34.99403 37110 ft 430 kts 280°
2026-05-08 16:37 42.01461 34.95361 37409 ft 433 kts 274°
2026-05-08 16:38 42.01407 34.91309 37666 ft 435 kts 272°
2026-05-08 16:38 42.01281 34.87247 37938 ft 435 kts 271°
2026-05-08 16:38 42.01121 34.83182 38145 ft 436 kts 271°
2026-05-08 16:38 42.00941 34.79114 38150 ft 435 kts 271°
2026-05-08 16:39 42.00551 34.71028 38144 ft 433 kts 270°
2026-05-08 16:39 42.00149 34.62954 38121 ft 432 kts 270°
2026-05-08 16:40 41.99742 34.54902 38135 ft 432 kts 270°
2026-05-08 16:40 41.99330 34.46853 38137 ft 432 kts 270°
2026-05-08 16:41 41.98911 34.38800 38136 ft 432 kts 270°
2026-05-08 16:42 41.98274 34.26736 38137 ft 430 kts 270°
2026-05-08 16:42 41.97843 34.18714 38135 ft 430 kts 270°
2026-05-08 16:43 41.97407 34.10717 38134 ft 429 kts 270°
2026-05-08 16:43 41.96968 34.02736 38129 ft 428 kts 270°
2026-05-08 16:44 41.96526 33.94820 38135 ft 428 kts 270°
2026-05-08 16:44 41.96076 33.86856 38120 ft 427 kts 270°
2026-05-08 16:45 41.95623 33.78927 38135 ft 424 kts 270°
2026-05-08 16:45 41.95143 33.71024 38135 ft 426 kts 266°
2026-05-08 16:46 41.93976 33.63180 38124 ft 429 kts 263°
2026-05-08 16:46 41.92762 33.55375 38123 ft 426 kts 263°
2026-05-08 16:47 41.91541 33.47598 38137 ft 426 kts 263°
2026-05-08 16:47 41.90314 33.39826 38141 ft 426 kts 263°
2026-05-08 16:48 41.89084 33.32066 38135 ft 424 kts 263°
2026-05-08 16:48 41.87852 33.24326 38152 ft 425 kts 263°
2026-05-08 16:49 41.86611 33.16576 38123 ft 423 kts 263°
2026-05-08 16:49 41.85372 33.08866 38120 ft 422 kts 263°
2026-05-08 16:50 41.84130 33.01179 38127 ft 422 kts 263°
2026-05-08 16:50 41.82882 32.93491 38117 ft 422 kts 263°
2026-05-08 16:51 41.81628 32.85800 38126 ft 422 kts 262°
2026-05-08 16:51 41.80379 32.78172 38108 ft 421 kts 262°
2026-05-08 16:52 41.79119 32.70516 38126 ft 422 kts 262°
2026-05-08 16:52 41.77858 32.62857 38123 ft 420 kts 262°
2026-05-08 16:53 41.75948 32.51385 38120 ft 421 kts 262°
2026-05-08 16:53 41.74670 32.43737 38105 ft 421 kts 262°
2026-05-08 16:54 41.73387 32.36087 38096 ft 421 kts 262°
2026-05-08 16:54 41.72070 32.28442 38126 ft 423 kts 260°
2026-05-08 16:55 41.70687 32.20775 38111 ft 423 kts 260°
2026-05-08 16:55 41.69306 32.13117 38118 ft 424 kts 260°
2026-05-08 16:56 41.67919 32.05454 38103 ft 424 kts 260°
2026-05-08 16:56 41.66529 31.97804 38121 ft 424 kts 260°
2026-05-08 16:57 41.65133 31.90154 38109 ft 423 kts 259°
2026-05-08 16:57 41.63733 31.82511 38116 ft 423 kts 259°
2026-05-08 16:58 41.62337 31.74925 38116 ft 423 kts 259°
2026-05-08 16:58 41.60928 31.67294 38109 ft 423 kts 259°
2026-05-08 16:59 41.59514 31.59672 38110 ft 423 kts 259°
2026-05-08 16:59 41.58093 31.52038 38099 ft 422 kts 259°
2026-05-08 17:00 41.56673 31.44440 38105 ft 422 kts 259°
2026-05-08 17:00 41.55276 31.36840 38098 ft 420 kts 263°
2026-05-08 17:01 41.55158 31.32987 38094 ft 414 kts 276°
2026-05-08 17:01 41.55359 31.29163 38071 ft 417 kts 275°
2026-05-08 17:01 41.55782 31.21441 37491 ft 420 kts 276°
2026-05-08 17:02 41.56023 31.17507 36532 ft 425 kts 276°
2026-05-08 17:02 41.56268 31.13602 36067 ft 418 kts 276°
2026-05-08 17:02 41.56513 31.09734 35367 ft 418 kts 276°
2026-05-08 17:02 41.56756 31.05868 34456 ft 419 kts 276°
2026-05-08 17:03 41.57000 31.01973 33355 ft 423 kts 276°
2026-05-08 17:03 41.57162 30.99379 32574 ft 425 kts 275°
2026-05-08 17:03 41.57408 30.95419 31394 ft 430 kts 275°
2026-05-08 17:03 41.57655 30.91423 30224 ft 434 kts 275°
2026-05-08 17:04 41.57899 30.87393 28898 ft 438 kts 273°
2026-05-08 17:04 41.57920 30.83324 28123 ft 436 kts 270°
2026-05-08 17:04 41.57928 30.79312 27643 ft 430 kts 270°
2026-05-08 17:04 41.57949 30.75250 27099 ft 444 kts 270°
2026-05-08 17:05 41.57977 30.71086 26516 ft 452 kts 270°
2026-05-08 17:05 41.58007 30.66869 25930 ft 456 kts 270°
2026-05-08 17:05 41.58037 30.62626 25249 ft 457 kts 270°
2026-05-08 17:05 41.58065 30.58387 24709 ft 457 kts 270°
2026-05-08 17:06 41.58091 30.54135 24350 ft 458 kts 270°
2026-05-08 17:06 41.58116 30.49890 24006 ft 457 kts 270°
2026-05-08 17:06 41.58140 30.45655 23656 ft 456 kts 270°
2026-05-08 17:06 41.58162 30.41429 23234 ft 454 kts 270°
2026-05-08 17:07 41.58182 30.37232 22561 ft 449 kts 270°
2026-05-08 17:07 41.58200 30.33092 21772 ft 444 kts 270°
2026-05-08 17:07 41.58217 30.28992 21040 ft 439 kts 270°
2026-05-08 17:07 41.58232 30.24933 20324 ft 435 kts 270°
2026-05-08 17:08 41.58245 30.20911 19614 ft 431 kts 270°
2026-05-08 17:08 41.58257 30.16941 18922 ft 428 kts 269°
2026-05-08 17:08 41.58268 30.12981 18199 ft 425 kts 269°
2026-05-08 17:08 41.58277 30.09044 17477 ft 421 kts 269°
2026-05-08 17:09 41.58285 30.05148 16741 ft 418 kts 269°
2026-05-08 17:09 41.58291 30.01300 16075 ft 413 kts 269°
2026-05-08 17:09 41.58297 29.97479 15441 ft 409 kts 269°
2026-05-08 17:09 41.58300 29.93697 14805 ft 405 kts 269°
2026-05-08 17:10 41.58303 29.89948 14179 ft 402 kts 269°
2026-05-08 17:10 41.58304 29.86230 13580 ft 398 kts 269°
2026-05-08 17:10 41.58304 29.82547 12872 ft 396 kts 269°
2026-05-08 17:10 41.58304 29.78904 12338 ft 390 kts 269°
2026-05-08 17:11 41.58301 29.75328 11970 ft 380 kts 269°
2026-05-08 17:11 41.58298 29.71849 11730 ft 368 kts 269°
2026-05-08 17:11 41.58294 29.68488 11519 ft 357 kts 269°
2026-05-08 17:11 41.58289 29.65228 11330 ft 345 kts 269°
2026-05-08 17:12 41.58283 29.62075 11147 ft 334 kts 269°
2026-05-08 17:12 41.58277 29.59015 10974 ft 324 kts 268°
2026-05-08 17:12 41.58271 29.56056 10814 ft 314 kts 268°
2026-05-08 17:12 41.58263 29.53179 10663 ft 305 kts 268°
2026-05-08 17:13 41.58255 29.50392 10494 ft 296 kts 268°
2026-05-08 17:13 41.58247 29.47677 10312 ft 289 kts 268°
2026-05-08 17:13 41.58238 29.45036 10165 ft 280 kts 268°
2026-05-08 17:13 41.58230 29.42466 9998 ft 273 kts 268°
2026-05-08 17:14 41.58220 29.39944 9709 ft 271 kts 267°
2026-05-08 17:14 41.58210 29.37453 9448 ft 265 kts 267°
2026-05-08 17:14 41.58200 29.35016 9131 ft 261 kts 267°
2026-05-08 17:14 41.58190 29.32594 8830 ft 260 kts 266°
2026-05-08 17:15 41.58179 29.30185 8544 ft 259 kts 266°
2026-05-08 17:15 41.58167 29.27790 8268 ft 257 kts 266°
2026-05-08 17:15 41.58155 29.25445 7995 ft 255 kts 266°
2026-05-08 17:15 41.58143 29.23092 7724 ft 252 kts 266°
2026-05-08 17:16 41.58131 29.20759 7460 ft 251 kts 266°
2026-05-08 17:16 41.58118 29.18433 7194 ft 250 kts 266°
2026-05-08 17:16 41.58104 29.16121 6929 ft 249 kts 266°
2026-05-08 17:16 41.58090 29.13815 6663 ft 248 kts 266°
2026-05-08 17:17 41.58076 29.11492 6388 ft 247 kts 266°
2026-05-08 17:17 41.58063 29.09239 6113 ft 245 kts 266°
2026-05-08 17:17 41.58047 29.06969 5842 ft 244 kts 266°
2026-05-08 17:17 41.58032 29.04683 5576 ft 243 kts 266°
2026-05-08 17:18 41.58016 29.02431 5346 ft 241 kts 266°
2026-05-08 17:18 41.58001 29.00235 5228 ft 239 kts 266°
2026-05-08 17:18 41.57984 28.97987 5113 ft 239 kts 266°
2026-05-08 17:18 41.58006 28.95780 4966 ft 239 kts 274°
2026-05-08 17:19 41.58596 28.93721 4746 ft 244 kts 295°
2026-05-08 17:19 41.59430 28.91715 4524 ft 244 kts 295°
2026-05-08 17:19 41.60243 28.89769 4307 ft 243 kts 295°
2026-05-08 17:19 41.61066 28.87809 4096 ft 241 kts 295°
2026-05-08 17:20 41.61883 28.85870 4010 ft 239 kts 295°
2026-05-08 17:20 41.62698 28.83938 3990 ft 239 kts 295°
2026-05-08 17:20 41.63486 28.81990 3984 ft 237 kts 288°
2026-05-08 17:20 41.63662 28.79878 3984 ft 228 kts 257°
2026-05-08 17:21 41.63011 28.77989 4012 ft 225 kts 230°
2026-05-08 17:21 41.61817 28.76695 4013 ft 219 kts 212°
2026-05-08 17:21 41.60507 28.75697 4005 ft 217 kts 204°
2026-05-08 17:21 41.59038 28.75232 4012 ft 219 kts 188°
2026-05-08 17:22 41.57507 28.75135 4010 ft 221 kts 184°
2026-05-08 17:22 41.55973 28.75124 4006 ft 221 kts 183°
2026-05-08 17:22 41.54433 28.75141 4006 ft 221 kts 182°
2026-05-08 17:22 41.52894 28.75164 4006 ft 221 kts 182°
2026-05-08 17:23 41.51362 28.75191 4005 ft 221 kts 182°
2026-05-08 17:23 41.49833 28.75219 4010 ft 220 kts 182°
2026-05-08 17:23 41.48299 28.75248 3884 ft 220 kts 182°
2026-05-08 17:23 41.46776 28.75276 3626 ft 217 kts 182°
2026-05-08 17:24 41.45294 28.75304 3377 ft 209 kts 183°
2026-05-08 17:24 41.43859 28.75332 3105 ft 203 kts 183°
2026-05-08 17:24 41.42466 28.75360 2844 ft 197 kts 183°
2026-05-08 17:24 41.41110 28.75386 2580 ft 192 kts 183°
2026-05-08 17:25 41.39791 28.75411 2337 ft 187 kts 184°
2026-05-08 17:25 41.38505 28.75436 2090 ft 182 kts 183°
2026-05-08 17:25 41.37309 28.75460 1869 ft 162 kts 184°
2026-05-08 17:25 41.36243 28.75481 1659 ft 146 kts 184°
2026-05-08 17:26 41.35240 28.75499 1472 ft 144 kts 184°
2026-05-08 17:26 41.34238 28.75518 1272 ft 144 kts 183°
2026-05-08 17:26 41.33238 28.75537 1126 ft 144 kts 182°
2026-05-08 17:26 41.32229 28.75555 922 ft 144 kts 181°
2026-05-08 17:27 41.31249 28.75574 725 ft 143 kts 181°
2026-05-08 17:27 41.30253 28.75609 510 ft 144 kts 178°
2026-05-08 17:27 41.29238 28.75631 325 ft 150 kts 180°
2026-05-08 17:27 41.28249 28.75639 263 ft 129 kts 179°
2026-05-08 17:28 41.27509 28.75652 295 ft 96 kts 178°
2026-05-08 17:28 41.26888 28.75657 307 ft 83 kts 179°
2026-05-08 17:28 41.26437 28.75664 315 ft 55 kts 179°
2026-05-08 17:28 41.26252 28.75638 317 ft 14 kts 240°
2026-05-08 17:29 41.26244 28.75505 317 ft 6 kts 269°
2026-05-08 17:29 41.26244 28.75487 317 ft 1 kts 269°
2026-05-08 17:29 41.26243 28.75466 317 ft 3 kts 268°
2026-05-08 17:29 41.26242 28.75415 317 ft 10 kts 268°
2026-05-08 17:30 41.26231 28.75294 315 ft 15 kts 236°
2026-05-08 17:30 41.26126 28.75268 317 ft 17 kts 179°
2026-05-08 17:30 41.25996 28.75275 316 ft 20 kts 174°
2026-05-08 17:30 41.25848 28.75274 316 ft 23 kts 182°
2026-05-08 17:31 41.25697 28.75279 314 ft 14 kts 181°
2026-05-08 17:31 41.25642 28.75189 314 ft 16 kts 267°
2026-05-08 17:31 41.25642 28.75024 313 ft 19 kts 270°
2026-05-08 17:31 41.25668 28.74921 313 ft 8 kts 338°
2026-05-08 17:32 41.25718 28.74924 314 ft 8 kts 360°
2026-05-08 17:32 41.25737 28.74923 313 ft 1 kts 360°